Temperature
17 17 17 17 17 17 17 17 17 17 16 16 16 16 16 16 16 17 17 16 16 16 16 16 16 16 17 17 17 17 17 17 17 18 18 17 17 17 17 16 16 16 16
17 17 17 17 17 17 17 17 17 17 16 16 16 16 16 16 16 16 16 16 16 16 16 16 16 16 16 16 16 16 17 17 17 17 17 17 16 16 16 16 16 16 16
17 17 17 17 17 17 17 17 16 16 16 16 16 16 16 16 16 16 16 16 16 16 16 16 16 16 16 16 16 16 16 16 16 16 16 16 16 16 16 15 15 16 16
17 17 17 17 17 17 17 17 16 16 16 16 16 16 16 16 16 16 16 16 16 16 16 15 15 15 15 15 15 15 15 16 16 16 16 16 16 15 15 15 15 15 15
17 17 17 17 17 17 16 16 16 16 16 16 16 16 16 16 16 16 16 15 15 15 15 15 15 15 15 15 15 15 15 15 15 15 15 15 15 15 15 15 15 15 15
17 17 17 16 16 16 16 16 16 16 16 16 16 16 15 15 16 16 16 15 15 15 15 15 15 15 15 15 15 15 15 15 15 15 15 15 14 14 14 14 14 14 14
17 16 16 16 16 16 16 16 16 16 16 15 15 15 15 15 15 15 15 15 15 15 15 15 15 15 15 14 14 14 14 14 14 14 14 14 13 13 13 13 13 13 13
16 16 16 16 16 16 15 15 15 15 15 15 15 15 15 15 15 15 15 15 14 14 14 14 14 14 14 14 14 14 14 14 13 13 13 13 13 13 13 12 12 12 13
16 16 16 15 15 15 15 15 15 15 15 14 14 14 14 14 14 14 14 14 14 14 14 14 14 14 13 13 13 13 13 13 13 13 12 12 12 12 12 12 12 12 12
15 15 15 15 15 15 15 15 15 15 14 14 14 14 14 14 14 14 14 14 14 13 13 13 13 13 13 13 12 12 12 12 12 12 12 11 11 11 11 11 11 11 11
15 15 15 15 15 15 15 14 14 14 14 14 13 13 13 13 13 13 14 13 13 13 13 12 12 12 12 12 12 12 12 12 11 11 11 11 11 10 10 10 10 10 10
15 15 15 14 14 14 14 14 14 14 13 13 13 13 13 13 13 13 13 13 12 12 12 12 12 12 11 11 11 11 11 11 11 11 11 10 10 10 9 9 9 9 9
14 14 14 14 14 13 13 13 13 13 13 13 12 12 12 12 12 12 12 12 12 12 11 11 11 11 10 10 10 10 10 10 10 10 10 9 9 9 9 9 8 8 8
14 14 13 13 13 13 13 13 13 12 12 12 12 12 11 11 11 11 11 11 11 11 10 10 10 10 10 9 9 9 9 9 9 9 9 8 8 8 8 8 8 8 8
13 13 12 12 12 12 12 12 12 12 11 11 11 11 11 11 10 10 10 10 10 10 9 9 9 9 9 9 9 8 8 8 8 8 8 8 7 7 7 7 7 7 7
12 12 12 12 12 12 11 11 11 11 10 11 11 10 10 10 10 10 10 9 9 9 9 9 9 8 8 8 8 8 7 7 7 7 7 7 7 7 7 7 6 6 7
12 12 11 11 11 11 10 10 10 9 9 10 10 9 9 9 9 9 9 9 8 8 8 8 8 7 7 7 7 7 7 6 6 6 6 6 6 6 6 6 6 6 6
11 11 11 10 10 10 10 10 9 9 9 8 8 8 8 8 8 8 8 8 8 8 7 7 7 6 6 6 6 6 6 6 5 5 5 5 5 5 5 5 5 5 5
11 10 10 10 10 10 9 9 9 9 9 8 8 7 7 7 7 7 7 7 7 7 6 6 6 6 6 5 5 5 5 5 5 5 5 4 4 5 5 5 5 4 4
10 10 10 10 10 9 9 9 9 9 8 8 7 7 7 7 7 6 6 6 6 6 5 5 5 5 5 5 4 4 4 4 4 4 4 4 4 4 4 4 4 4 4
10 9 9 10 9 9 9 9 9 8 8 7 7 7 6 6 6 6 5 5 5 5 4 4 4 4 4 4 4 4 3 4 3 3 3 3 3 3 3 3 4 4 4
9 9 9 9 9 8 8 8 8 8 7 7 6 6 6 6 5 5 5 4 4 4 4 3 4 3 3 3 3 3 3 3 3 3 3 3 3 3 3 3 3 3 3
9 9 9 8 8 8 8 8 7 7 7 6 6 6 5 5 5 4 4 4 3 3 3 3 3 3 3 3 3 3 3 2 2 2 2 2 2 3 3 3 3 3 3
9 8 8 8 8 8 7 7 7 6 6 6 5 5 4 4 4 3 3 3 3 3 3 2 2 2 2 2 2 2 2 2 2 2 2 2 2 2 2 2 2 3 3
8 8 8 8 7 7 6 6 6 6 5 5 5 4 4 4 3 3 3 3 3 2 2 2 2 2 2 2 2 2 2 2 2 2 2 2 2 2 2 2 2 2 2
7 7 7 7 6 6 6 5 5 5 4 4 4 4 3 3 3 3 3 2 2 2 2 2 2 1 1 1 2 2 2 2 2 2 2 2 2 2 2 2 2 2 2
Wind_Speed
8 8 7 8 8 9 8 9 9 9 9 9 9 10 10 9 9 9 9 8 9 9 8 8 9 8 7 7 7 8 8 8 8 7 5 4 4 7 5 7 10 10 11
7 7 7 7 7 7 8 8 8 8 9 10 9 9 9 9 9 9 9 9 9 10 9 8 9 7 8 8 7 8 7 7 8 9 7 6 6 6 6 8 9 10 10
7 7 6 6 7 7 7 7 7 8 8 9 9 9 9 8 8 8 9 9 9 8 8 8 8 7 7 7 7 7 6 7 7 8 8 5 6 5 6 7 8 7 10
6 6 6 6 6 6 6 6 6 7 8 8 8 8 8 7 7 8 8 8 7 7 6 6 6 7 7 7 6 7 7 7 6 8 7 6 5 5 5 6 7 6 7
5 6 5 5 5 5 5 5 6 6 7 7 7 7 7 6 6 6 6 6 6 6 5 5 6 4 2 3 5 5 5 6 6 6 6 6 5 4 5 6 7 7 6
5 5 5 4 4 4 4 5 5 5 5 5 6 5 5 4 3 3 4 5 5 5 5 5 5 4 4 4 3 3 4 5 6 6 6 6 5 5 5 6 7 8 8
5 5 5 5 4 4 5 5 5 5 5 5 5 5 4 4 5 4 2 3 4 4 4 4 4 3 4 5 5 6 4 4 5 6 6 6 5 5 5 7 7 8 9
5 5 6 6 5 5 5 5 5 5 5 5 5 5 5 5 6 5 3 4 3 2 2 2 2 1 1 2 3 3 3 2 2 3 3 4 4 4 5 7 8 9 9
5 5 5 6 6 6 6 6 6 6 6 5 5 5 5 5 5 3 1 3 3 2 2 3 1 1 3 3 2 2 2 1 2 3 1 1 2 3 5 6 7 7 8
6 5 5 5 6 6 7 7 6 6 6 6 6 6 5 5 5 3 0 2 3 3 3 4 5 4 4 3 0 0 0 1 1 1 2 3 3 2 4 5 6 7 7
6 6 6 6 6 7 7 7 7 7 7 7 7 6 6 6 6 6 4 2 2 3 3 3 4 6 6 5 3 2 2 3 2 2 2 2 2 2 3 3 5 6 7
7 7 7 7 7 7 8 7 7 7 8 7 6 6 6 7 8 8 8 6 4 4 4 5 6 8 8 7 5 4 3 4 1 2 2 2 3 4 4 5 6 6 7
9 9 9 9 9 8 8 8 7 6 6 6 6 6 6 7 8 11 10 10 9 6 7 10 8 6 5 6 7 4 3 3 3 3 4 4 5 5 5 5 6 6 8
11 10 10 10 11 10 8 7 6 6 6 6 6 7 7 7 7 6 6 7 8 8 7 8 7 6 5 5 4 4 5 5 5 4 5 5 5 5 5 6 7 8 8
11 11 11 11 12 12 12 11 10 10 8 7 7 7 7 7 7 9 7 6 5 5 3 3 4 4 5 5 5 5 5 5 5 5 5 6 6 6 6 6 7 8 9
10 10 9 9 10 11 12 14 20 17 19 19 16 11 10 10 9 11 12 10 8 5 3 6 5 5 5 5 5 5 5 5 6 6 6 6 7 7 7 7 7 8 9
11 10 9 9 9 9 10 11 11 13 18 19 18 16 14 12 11 10 9 8 6 5 6 7 6 6 6 5 5 5 6 6 6 6 7 7 7 8 8 8 8 8 9
11 11 10 9 9 9 9 9 9 9 10 10 12 14 13 12 11 8 5 3 6 7 7 6 6 6 6 6 6 6 6 6 6 7 7 7 8 8 8 8 8 9 10
9 8 8 9 9 9 8 8 9 10 9 8 8 8 8 8 8 7 6 7 7 7 7 7 6 6 6 6 6 6 7 6 7 7 7 8 8 8 9 9 10 10 10
10 11 8 8 8 8 7 8 8 8 8 7 7 6 5 4 6 7 7 7 7 7 7 6 6 7 6 6 6 7 7 7 8 7 8 8 8 9 9 10 10 10 10
9 9 8 8 8 8 7 7 7 7 7 7 7 8 8 5 6 7 7 7 7 7 7 6 6 6 6 6 7 7 8 8 8 9 9 9 9 9 9 9 10 9 9
7 7 7 8 8 7 7 7 7 7 7 7 6 6 4 5 6 6 6 6 6 6 6 6 6 6 7 7 7 7 8 8 9 9 9 9 9 9 9 9 9 10 10
7 8 8 8 8 7 6 7 7 6 6 6 6 5 5 6 6 6 6 6 6 6 7 7 7 7 8 8 8 8 8 9 9 10 10 10 9 9 9 9 10 11 11
7 8 8 8 7 7 7 7 7 6 6 6 6 6 6 6 6 6 5 5 6 6 7 7 7 9 10 9 9 9 10 12 13 12 12 10 10 9 9 9 10 11 10
7 7 7 7 7 7 7 7 7 6 6 6 5 5 5 5 5 5 5 5 5 6 7 7 7 8 10 10 11 12 14 15 13 13 12 9 9 9 9 10 9 10 10
7 7 7 7 7 7 6 6 6 6 6 5 5 5 5 5 5 5 5 5 5 5 6 6 8 8 10 10 12 14 15 15 15 15 12 9 9 8 10 9 10 10 10
Wind_Direction
201 205 205 203 203 202 205 206 206 208 206 205 205 204 204 205 206 207 214 209 212 215 218 220 226 239 236 234 234 239 244 250 258 261 250 238 236 262 249 245 247 241 231
196 198 200 197 192 196 200 201 202 202 200 199 200 201 204 205 204 206 214 211 212 213 217 221 226 225 230 245 246 245 246 251 257 263 262 248 232 244 250 252 252 248 252
184 186 186 187 187 193 197 197 198 195 192 192 191 196 201 204 206 207 212 214 216 217 216 219 225 226 229 234 241 247 246 243 247 257 257 260 256 251 254 251 252 257 261
174 175 175 181 184 188 189 189 190 188 184 185 187 192 195 201 206 209 209 211 214 217 217 219 223 226 232 235 236 244 250 253 247 253 258 256 255 255 260 265 262 248 260
167 168 171 173 172 173 176 179 178 178 177 177 181 186 189 191 203 205 205 206 211 214 212 215 220 218 248 248 248 244 247 252 252 252 258 262 263 266 265 270 275 278 264
162 159 158 157 158 159 162 164 159 158 159 163 170 172 171 180 141 159 203 205 207 209 210 213 212 201 207 212 257 286 281 259 263 267 267 272 281 284 290 285 285 281 278
158 151 145 146 144 141 135 133 137 140 140 142 145 146 143 115 106 122 170 204 208 213 217 221 231 209 198 216 205 207 225 236 260 271 275 284 286 291 289 282 283 286 287
151 148 143 138 135 130 123 123 124 125 125 129 130 131 123 101 103 121 152 183 192 205 216 229 229 243 259 267 244 226 228 221 230 241 264 281 299 310 293 283 285 280 275
142 142 143 144 140 135 129 124 123 121 118 117 113 107 102 86 73 91 158 151 132 105 74 58 60 64 32 358 250 234 220 186 116 116 103 296 327 319 307 292 290 287 289
135 137 137 139 137 133 127 124 121 120 115 106 96 90 86 74 59 60 53 141 127 118 105 89 67 52 44 28 328 323 234 270 279 210 207 229 258 250 243 281 296 294 296
128 123 123 126 125 123 121 119 117 114 107 99 93 85 76 64 66 59 43 90 119 117 108 90 68 65 60 46 24 28 342 299 280 280 282 294 303 311 315 322 322 308 303
114 112 110 112 116 114 113 110 112 114 112 106 98 86 76 67 58 62 58 51 41 84 78 76 74 73 72 59 53 32 338 294 311 330 335 339 336 338 342 334 323 312 303
105 102 98 92 89 96 105 110 109 109 109 107 104 94 80 74 72 70 68 64 59 73 77 82 86 91 99 84 71 23 349 12 14 5 357 353 346 343 326 316 306 299 287
99 96 94 89 84 75 71 71 77 82 94 96 93 90 84 69 55 58 75 83 92 91 91 108 121 104 90 77 71 43 37 35 16 8 355 344 335 328 323 326 321 317 309
98 96 94 90 87 79 69 54 58 50 51 75 81 81 79 73 44 34 49 61 63 71 82 84 68 63 56 51 48 42 28 22 14 4 351 342 333 327 323 321 317 312 308
101 100 98 98 96 97 94 79 58 61 58 57 57 70 76 74 73 65 61 57 46 15 40 70 60 48 43 37 29 24 23 17 3 349 342 336 330 324 320 318 313 310 309
97 98 99 100 102 103 104 104 98 77 67 62 61 65 73 75 71 69 68 65 41 14 57 59 50 42 35 28 21 14 9 8 353 343 341 338 331 325 321 321 319 319 316
95 94 98 100 100 101 102 104 105 106 100 87 74 70 74 73 64 47 27 65 68 57 57 54 47 38 31 22 14 6 359 356 352 345 341 339 334 328 324 322 321 324 319
89 92 93 96 97 99 102 104 102 99 98 100 100 93 96 103 90 48 24 53 57 55 53 49 40 30 24 18 10 2 356 352 351 340 339 339 334 329 326 324 320 319 312
88 83 91 102 102 103 103 101 100 101 99 93 86 78 87 85 70 64 59 54 54 52 46 41 34 25 20 13 6 359 352 351 349 344 344 340 335 330 326 322 320 320 317
100 100 103 101 96 95 95 95 96 94 91 86 77 53 12 60 65 61 56 53 49 45 37 29 24 21 18 8 3 359 355 356 355 350 346 341 337 333 327 322 321 318 317
97 96 94 92 94 92 94 96 95 94 93 91 93 91 50 58 63 59 55 52 48 43 36 24 20 21 15 7 1 356 356 357 354 348 341 335 331 328 326 326 327 324 322
96 98 97 96 97 104 100 93 91 90 87 84 81 76 70 62 63 59 54 49 43 38 34 27 22 22 16 8 4 1 359 355 346 338 331 329 328 326 325 326 325 325 327
97 100 103 104 102 98 93 92 88 84 81 79 76 74 71 67 61 56 49 46 39 36 31 28 26 23 16 8 3 7 8 351 336 328 326 322 322 325 326 325 324 326 325
92 96 98 98 97 96 93 89 86 84 82 79 75 72 70 66 63 58 49 43 38 36 29 25 21 18 13 12 9 5 357 348 339 329 319 316 322 327 329 326 327 326 327
90 91 92 93 93 93 94 93 90 88 84 78 72 68 63 60 56 51 43 33 28 31 23 24 21 16 11 10 8 359 352 346 338 329 317 317 326 335 336 330 332 332 334
Height
1497 1498 1500 1501 1503 1505 1506 1509 1511 1513 1516 1519 1522 1526 1529 1532 1534 1537 1540 1542 1543 1545 1547 1549 1550 1552 1553 1555 1556 1556 1557 1558 1558 1558 1558 1558 1557 1557 1557 1557 1557 1557 1557
1496 1497 1498 1499 1501 1502 1504 1506 1508 1510 1512 1516 1519 1522 1525 1528 1531 1533 1536 1538 1540 1541 1543 1545 1547 1548 1549 1550 1551 1552 1553 1553 1554 1554 1554 1555 1553 1553 1552 1552 1553 1553 1552
1495 1496 1497 1498 1499 1500 1502 1503 1505 1508 1510 1513 1516 1519 1522 1525 1527 1530 1532 1535 1537 1538 1540 1541 1543 1544 1545 1546 1547 1548 1549 1549 1549 1550 1550 1550 1550 1549 1548 1548 1548 1547 1547
1494 1495 1496 1497 1498 1499 1500 1502 1503 1506 1508 1510 1513 1516 1519 1522 1524 1527 1529 1531 1533 1535 1536 1537 1538 1540 1541 1542 1543 1543 1544 1545 1545 1545 1546 1546 1545 1545 1544 1544 1544 1543 1542
1493 1494 1495 1496 1497 1498 1499 1500 1502 1504 1506 1508 1511 1514 1516 1519 1521 1524 1526 1528 1530 1531 1532 1533 1535 1536 1537 1538 1539 1540 1541 1541 1541 1542 1542 1542 1541 1541 1540 1540 1539 1538 1537
1492 1493 1494 1495 1496 1497 1498 1499 1500 1502 1504 1507 1509 1512 1514 1517 1519 1521 1523 1525 1527 1528 1529 1530 1531 1532 1533 1534 1535 1536 1537 1537 1538 1538 1538 1538 1537 1537 1536 1535 1535 1534 1533
1492 1493 1493 1494 1495 1496 1497 1498 1499 1501 1503 1505 1508 1510 1512 1515 1517 1519 1521 1523 1524 1525 1526 1527 1528 1529 1530 1530 1531 1532 1532 1533 1533 1534 1534 1533 1533 1532 1531 1531 1530 1529 1528
1491 1493 1494 1494 1495 1496 1497 1498 1499 1501 1503 1505 1507 1509 1511 1513 1515 1517 1519 1521 1522 1522 1523 1523 1525 1526 1527 1527 1528 1528 1528 1528 1529 1529 1529 1529 1529 1528 1527 1527 1526 1524 1523
1491 1492 1494 1495 1496 1497 1498 1499 1500 1502 1503 1505 1507 1509 1511 1513 1515 1516 1518 1519 1519 1520 1520 1521 1522 1523 1524 1524 1525 1525 1525 1525 1525 1525 1525 1525 1525 1524 1523 1523 1522 1521 1519
1491 1492 1493 1495 1496 1497 1498 1500 1501 1503 1504 1506 1508 1509 1511 1513 1515 1516 1517 1518 1518 1519 1519 1519 1520 1521 1521 1521 1522 1523 1523 1523 1523 1523 1522 1522 1521 1521 1520 1519 1518 1517 1515
1490 1492 1493 1494 1496 1498 1499 1501 1502 1504 1505 1507 1509 1510 1512 1513 1514 1515 1516 1516 1517 1518 1519 1519 1519 1519 1520 1520 1520 1520 1520 1521 1521 1521 1520 1520 1519 1518 1517 1515 1514 1513 1511
1490 1492 1493 1495 1497 1498 1500 1501 1503 1505 1506 1508 1510 1511 1512 1513 1514 1515 1515 1516 1516 1517 1518 1518 1518 1518 1518 1519 1519 1519 1519 1519 1520 1519 1519 1518 1517 1516 1514 1512 1510 1508 1506
1491 1492 1494 1495 1497 1499 1501 1503 1505 1506 1508 1510 1511 1512 1514 1514 1515 1515 1515 1516 1516 1517 1517 1517 1517 1517 1518 1518 1517 1517 1517 1518 1517 1517 1516 1516 1514 1512 1510 1508 1507 1504 1502
1492 1494 1495 1496 1498 1500 1502 1504 1506 1508 1509 1511 1512 1513 1514 1515 1516 1516 1517 1517 1517 1517 1517 1517 1517 1517 1517 1517 1517 1517 1517 1516 1516 1515 1514 1513 1512 1510 1508 1506 1504 1502 1500
1494 1495 1497 1499 1500 1501 1503 1505 1507 1508 1510 1512 1513 1514 1515 1516 1517 1517 1518 1518 1518 1518 1518 1519 1519 1519 1519 1519 1518 1518 1517 1516 1515 1514 1513 1511 1509 1507 1505 1503 1501 1499 1497
1496 1498 1499 1501 1503 1504 1505 1507 1510 1511 1513 1514 1515 1516 1516 1517 1518 1519 1519 1519 1519 1519 1520 1520 1520 1520 1520 1519 1519 1518 1517 1516 1514 1513 1512 1510 1508 1505 1503 1501 1499 1497 1495
1499 1500 1502 1504 1506 1507 1509 1510 1512 1515 1516 1517 1518 1518 1519 1519 1520 1520 1520 1520 1520 1521 1521 1521 1521 1521 1521 1520 1519 1518 1517 1516 1514 1512 1510 1508 1506 1504 1502 1499 1497 1495 1492
1503 1504 1506 1508 1509 1511 1513 1515 1516 1518 1519 1520 1521 1522 1522 1522 1522 1523 1523 1523 1523 1523 1523 1523 1523 1522 1521 1520 1519 1518 1517 1515 1513 1511 1509 1507 1505 1502 1500 1497 1495 1492 1489
1507 1508 1510 1512 1513 1515 1517 1518 1520 1522 1523 1524 1525 1525 1525 1525 1525 1525 1525 1525 1525 1525 1524 1524 1524 1523 1522 1521 1519 1518 1516 1515 1512 1510 1508 1506 1503 1501 1498 1496 1493 1490 1487
1510 1512 1514 1516 1517 1519 1521 1522 1524 1525 1527 1528 1528 1528 1529 1529 1529 1528 1527 1527 1527 1526 1526 1525 1524 1523 1522 1520 1519 1517 1516 1514 1511 1509 1507 1504 1502 1499 1497 1493 1491 1487 1484
1515 1516 1518 1520 1521 1523 1524 1525 1527 1528 1529 1530 1530 1529 1530 1531 1530 1529 1529 1529 1528 1527 1527 1526 1525 1524 1522 1520 1519 1517 1515 1513 1510 1508 1505 1503 1500 1497 1494 1491 1488 1485 1482
1519 1520 1521 1523 1524 1525 1527 1528 1529 1530 1531 1531 1532 1532 1531 1532 1532 1531 1531 1530 1529 1528 1527 1526 1525 1524 1521 1520 1518 1516 1514 1512 1509 1506 1503 1501 1498 1495 1492 1490 1486 1483 1480
1522 1523 1524 1525 1526 1527 1529 1530 1531 1532 1533 1533 1534 1534 1533 1533 1533 1532 1532 1531 1530 1529 1527 1526 1525 1523 1521 1519 1517 1515 1513 1510 1508 1505 1502 1500 1497 1494 1491 1488 1485 1482 1478
1525 1526 1527 1528 1529 1530 1531 1532 1533 1534 1534 1534 1534 1534 1534 1534 1533 1533 1532 1531 1530 1529 1528 1526 1525 1523 1521 1519 1517 1515 1511 1508 1506 1503 1500 1498 1495 1493 1489 1486 1483 1480 1477
1528 1529 1529 1530 1531 1532 1533 1534 1534 1535 1535 1535 1535 1535 1535 1535 1534 1534 1533 1532 1531 1529 1528 1527 1525 1523 1520 1518 1516 1513 1510 1507 1504 1501 1498 1496 1494 1491 1488 1485 1482 1479 1476
1530 1531 1531 1532 1533 1534 1534 1535 1536 1536 1536 1536 1536 1536 1536 1536 1535 1534 1533 1532 1531 1530 1528 1527 1525 1523 1520 1518 1515 1512 1509 1506 1503 1500 1497 1495 1494 1491 1487 1485 1482 1478 1475